User: anonymous   Login
Location: Unspecified
(0.0000°N, 0.0000°E)
Time: 11:30:58
(UTC+02:00)
Language:

PSLV R/B - Orbit

View from above orbital plane
View from above orbital plane
View from above satellite
View from above satellite

Ground track
Ground track

The orbit data is extracted from the following two-line orbital elements,

1 29713U 07001E   17117.89767599 +.00000344 +00000-0 +46389-4 0  9992
2 29713 097.7599 091.6943 0023696 260.0633 099.7907 14.85060077556496
Epoch (UTC): 27 April 2017 21:32:39
Eccentricity: 0.0023696
inclination: 97.7599°
perigee height: 597 km
apogee height: 630 km
right ascension of ascending node: 91.6943°
argument of perigee: 260.0633°
revolutions per day: 14.85060077
mean anomaly at epoch: 99.7907°
orbit number at epoch: 55649

The dashed part of the orbit path shows where the satellite is in the earth's shadow,  

DLR